Location: Newark
(46.7000°N, 60.6000°W)
Time: 06:03:11
(UTC+00:00)

Transit 2A Rocket - Pass Details

Date: 01 November 2020
Orbit: 588 x 914 km, 66.7° (Epoch: 27 November)

Event Time Altitude Azimuth Distance (km) Brightness Sun altitude
Rises 21:38:27 0° 323° (NW) 3,277 8.6 -9.4°
Reaches altitude 10° 21:41:01 10° 319° (NW) 2,290 7.9 -9.9°
Maximum altitude 21:46:03 53° 243° (WSW) 864 5.7 -10.7°
Drops below altitude 10° 21:50:37 10° 167° (SSE) 2,073 7.2 -11.5°
Sets 21:52:51 0° 163° (SSE) 2,938 7.9 -11.9°
